Location: Mt. Graham
(32.7020°N, 109.8880°W)
Time: 13:16:58
(UTC-07:00)

Tiangong 2 - Visible Passes

Search period start: 22 November 2017 00:00
Search period end: 02 December 2017 00:00
Orbit: 386 x 392 km, 42.8° (Epoch: 22 November)

Date Brightness Start Highest point End Pass type
(mag) Time Alt. Az. Time Alt. Az. Time Alt. Az.
24 Nov 3.5 06:09:30 10° SSW 06:12:11 25° SE 06:14:52 10° E visible
25 Nov 4.2 05:12:40 10° SSE 05:14:10 13° SE 05:15:40 10° ESE visible
26 Nov 1.6 05:49:43 12° SW 05:52:30 57° SSE 05:55:38 10° ENE visible
27 Nov 3.5 04:55:15 23° ESE 04:55:15 23° ESE 04:57:08 10° E visible
27 Nov 1.8 06:28:11 10° W 06:31:08 35° NNW 06:34:07 10° NE visible
28 Nov 1.0 05:32:51 64° NNW 05:32:51 64° NNW 05:36:01 10° NE visible
29 Nov 2.6 06:10:13 17° NW 06:11:39 22° NNW 06:14:15 10° NE visible
30 Nov 3.3 05:15:03 19° NNE 05:15:03 19° NNE 05:16:12 10° NE visible
01 Dec 3.0 05:52:05 17° NNW 05:52:12 17° NNW 05:54:21 10° NNE visible
